Location: Dehesa de la Cepeda
(40.6574°N, 4.3013°W)
Time: 20:10:19
(UTC+00:00)

Vanguard 3 - Pass Details

Date: 05 August 2021
Orbit: 510 x 3260 km, 33.3° (Epoch: 22 September)

Event Time Altitude Azimuth Distance (km) Brightness Sun altitude
Rises 19:35:38 0° 266° (W) 5,664 12.7 -2.2°
Reaches altitude 10° 19:38:51 10° 264° (W) 4,959 12.3 -2.7°
Maximum altitude 19:54:25 67° 187° (S) 3,263 10.1 -5.4°
Drops below altitude 10° 20:14:09 10° 111° (ESE) 6,089 10.9 -8.7°
Enters shadow 20:14:50 - 110° (ESE) 6,221 11.0 -8.8°
